User: anonymous   Login
Location: Unspecified
(0.0000°N, 0.0000°E)
Time: 19:20:57
(UTC+00:00)
Language:

OCO 2 - Orbit

View from above orbital plane
View from above orbital plane
View from above satellite
View from above satellite

Ground track
Ground track

The orbit data is extracted from the following two-line orbital elements,

1 40059U 14035A   19047.52445096  .00000023  00000-0  15116-4 0  9990
2 40059  98.2223 350.2681 0001285  81.9769 278.1575 14.57113952246125
Epoch (UTC): 16 February 2019 12:35:12
Eccentricity: 0.0001285
inclination: 98.2223°
perigee height: 701 km
apogee height: 703 km
right ascension of ascending node: 350.2681°
argument of perigee: 81.9769°
revolutions per day: 14.57113952
mean anomaly at epoch: 278.1575°
orbit number at epoch: 24612

The dashed part of the orbit path shows where the satellite is in the earth's shadow,  

DLR